GW0285 Weather Reports


Display with metric or nautical units.
time (UTC)temp
F
wind
direction
speed
MPH
gust
MPH
rain 1hr
in
rain 24hr
in
rain mn
in
humidity
%
barometer
mb
20260508010024 48 0 0.0 0.0 0.00 0.00 0.00 88 1015.5
20260508005403 48 0 0.0 0.0 0.00 0.00 0.00 89 1015.6
20260508004503 48 0 0.0 0.0 0.00 0.00 0.00 89 1015.7
20260508003603 48 320 0.0 2.0 0.00 0.00 0.00 90 1015.5
20260508002703 47 0 0.0 0.0 0.00 0.00 0.00 91 1015.8
20260508001803 47 0 0.0 0.0 0.00 0.00 0.00 91 1015.8
20260508000903 47 0 0.0 0.0 0.00 0.00 0.00 91 1015.7
20260508000003 47 0 0.0 0.0 0.00 0.00 0.00 91 1015.9
20260507235403 47 0 0.0 0.0 0.00 0.00 0.00 91 1016.0
20260507234503 47 0 0.0 0.0 0.00 0.00 0.00 92 1015.9
20260507233603 47 0 0.0 0.0 0.00 0.00 0.00 91 1016.0
20260507232703 47 0 0.0 0.0 0.00 0.00 0.00 91 1016.0
20260507231803 47 0 0.0 0.0 0.00 0.00 0.00 91 1016.2
20260507230903 47 0 0.0 0.0 0.00 0.00 0.00 91 1016.0
20260507230004 47 0 0.0 0.0 0.00 0.00 0.00 91 1016.2
20260507225403 47 0 0.0 0.0 0.00 0.00 0.00 90 1016.1
20260507224503 47 0 0.0 0.0 0.00 0.00 0.00 90 1016.1
20260507223603 47 0 0.0 0.0 0.00 0.00 0.00 90 1016.0
20260507222703 47 0 0.0 0.0 0.00 0.00 0.00 90 1016.2
20260507221803 47 0 0.0 0.0 0.00 0.00 0.00 90 1016.2
20260507220903 47 0 0.0 0.0 0.00 0.00 0.00 89 1016.3
20260507220024 47 0 0.0 0.0 0.00 0.00 0.00 89 1016.2
20260507215403 47 0 0.0 0.0 0.00 0.00 0.00 89 1016.1
20260507214503 47 0 0.0 0.0 0.00 0.00 0.00 89 1016.0
20260507213603 47 0 0.0 0.0 0.00 0.00 0.00 89 1016.1
20260507212703 47 0 0.0 0.0 0.00 0.00 0.00 89 1016.2
20260507211803 48 0 0.0 0.0 0.00 0.00 0.00 89 1016.1
20260507210924 48 0 0.0 0.0 0.00 0.00 0.00 88 1016.1
20260507210003 48 0 0.0 0.0 0.00 0.00 0.00 88 1016.2
20260507205403 48 0 0.0 0.0 0.00 0.00 0.00 87 1016.5
20260507204504 48 0 0.0 0.0 0.00 0.00 0.00 87 1016.4
20260507203603 48 0 0.0 0.0 0.00 0.00 0.00 86 1016.2
20260507202724 48 0 0.0 0.0 0.00 0.00 0.00 86 1016.4
20260507201803 48 0 0.0 0.0 0.00 0.00 0.00 85 1016.3
20260507200903 49 0 0.0 0.0 0.00 0.00 0.00 84 1016.0
20260507200024 49 0 0.0 0.0 0.00 0.00 0.00 83 1015.8
20260507195403 50 0 0.0 0.0 0.00 0.00 0.00 82 1015.7
20260507194503 50 0 0.0 0.0 0.00 0.00 0.00 81 1015.7
20260507193603 51 0 0.0 0.0 0.00 0.00 0.00 80 1015.4
20260507192703 51 0 0.0 0.0 0.00 0.00 0.00 78 1015.5
20260507191803 52 0 0.0 0.0 0.00 0.00 0.00 76 1015.2
20260507190924 53 0 0.0 0.0 0.00 0.00 0.00 75 1015.3
20260507190004 53 0 0.0 0.0 0.00 0.00 0.00 74 1015.2
20260507185403 53 0 0.0 0.0 0.00 0.00 0.00 74 1015.1
20260507184524 54 0 0.0 0.0 0.00 0.00 0.00 75 1015.3
20260507183602 55 0 0.0 0.0 0.00 0.00 0.00 74 1015.4
20260507182703 56 0 0.0 0.0 0.00 0.00 0.00 71 1015.3
20260507181803 58 87 0.0 7.0 0.00 0.00 0.00 69 1015.4
20260507180903 58 0 0.0 0.0 0.00 0.00 0.00 67 1015.2
20260507180024 59 0 0.0 0.0 0.00 0.00 0.00 66 1015.1
20260507175403 58 0 0.0 0.0 0.00 0.00 0.00 66 1015.3
20260507174503 58 300 0.0 2.0 0.00 0.00 0.00 66 1015.3
20260507173603 58 0 0.0 0.0 0.00 0.00 0.00 66 1015.3
20260507172703 57 148 0.0 2.0 0.00 0.00 0.00 66 1015.5
20260507171802 56 120 0.0 2.0 0.00 0.00 0.00 70 1015.5
20260507170903 56 0 0.0 0.0 0.00 0.00 0.00 69 1015.6
20260507170003 56 268 0.0 2.0 0.00 0.00 0.00 68 1015.5
20260507165403 57 135 0.0 2.0 0.00 0.00 0.00 66 1015.6
20260507164503 56 260 0.0 2.0 0.00 0.00 0.00 67 1015.7
20260507163603 56 91 1.0 7.0 0.00 0.00 0.00 66 1015.8
20260507162724 57 0 0.0 0.0 0.00 0.00 0.00 61 1015.9
20260507161803 58 104 0.0 7.0 0.00 0.00 0.00 61 1015.8
20260507160903 57 69 0.0 2.0 0.00 0.00 0.00 62 1016.1
20260507160003 58 16 0.0 7.0 0.00 0.00 0.00 63 1016.3
20260507155403 59 35 0.0 7.0 0.00 0.00 0.00 61 1016.5
20260507154503 61 0 0.0 0.0 0.00 0.00 0.00 58 1016.7
20260507153603 61 300 0.0 3.0 0.00 0.00 0.00 60 1016.8
20260507152703 61 87 0.0 1.0 0.00 0.00 0.00 57 1016.9
20260507151803 60 46 0.0 2.0 0.00 0.00 0.00 60 1016.7
20260507150903 60 31 0.0 10.0 0.00 0.00 0.00 61 1016.6
20260507150003 60 354 0.0 1.0 0.00 0.00 0.00 60 1016.5
20260507145403 59 311 0.0 7.0 0.00 0.00 0.00 62 1016.5
20260507144503 61 0 0.0 0.0 0.00 0.00 0.00 60 1016.6
20260507143603 59 149 0.0 2.0 0.00 0.00 0.00 60 1016.6
20260507142703 57 113 1.0 10.0 0.00 0.00 0.00 63 1016.7
20260507141803 60 70 0.0 9.0 0.00 0.00 0.00 59 1016.7
20260507140903 59 84 0.0 7.0 0.00 0.00 0.00 61 1016.7
20260507140003 59 132 0.0 3.0 0.00 0.00 0.00 59 1016.6
20260507135403 59 123 1.0 12.0 0.00 0.00 0.00 61 1016.5
20260507134524 59 6 0.0 7.0 0.00 0.00 0.00 61 1016.5
20260507133603 61 39 0.0 7.0 0.00 0.00 0.00 62 1016.5
20260507132703 61 263 0.0 3.0 0.00 0.00 0.00 61 1016.5
20260507131803 60 112 1.0 10.0 0.00 0.00 0.00 63 1016.3
20260507130903 57 107 0.0 2.0 0.00 0.00 0.00 66 1016.3
20260507130003 56 152 0.0 5.0 0.00 0.00 0.00 68 1016.3
20260507125403 55 0 0.0 0.0 0.00 0.00 0.00 68 1016.2
20260507124503 57 54 0.0 7.0 0.00 0.00 0.00 70 1016.4
20260507123624 57 336 0.0 1.0 0.00 0.00 0.00 70 1016.1
20260507122724 57 86 0.0 7.0 0.00 0.00 0.00 70 1016.3
20260507121803 57 0 0.0 0.0 0.00 0.00 0.00 70 1016.1
20260507120903 56 113 0.0 9.0 0.00 0.00 0.00 71 1016.0
20260507120003 56 0 0.0 0.0 0.00 0.00 0.00 71 1015.9
20260507115424 56 101 0.0 3.0 0.00 0.00 0.00 72 1016.1
20260507114524 56 0 0.0 0.0 0.00 0.00 0.00 71 1016.3
20260507113624 56 357 0.0 2.0 0.00 0.00 0.00 71 1016.1
20260507112703 57 0 0.0 0.0 0.00 0.00 0.00 70 1016.0
20260507111803 59 196 0.0 3.0 0.00 0.00 0.00 68 1016.0
20260507110924 59 0 0.0 0.0 0.00 0.00 0.00 65 1015.8
20260507110003 57 0 0.0 0.0 0.00 0.00 0.00 68 1016.0
20260507105403 57 357 0.0 2.0 0.00 0.00 0.00 68 1015.8
20260507104503 56 55 0.0 3.0 0.00 0.00 0.00 69 1016.0
20260507103603 57 55 0.0 3.0 0.00 0.00 0.00 69 1015.8
20260507102723 57 0 0.0 0.0 0.00 0.00 0.00 69 1016.0
20260507101803 57 86 0.0 2.0 0.00 0.00 0.00 65 1015.8
20260507100903 59 42 0.0 2.0 0.00 0.00 0.00 62 1015.8
20260507100002 61 54 0.0 2.0 0.00 0.00 0.00 54 1016.1
20260507095402 59 0 0.0 0.0 0.00 0.00 0.00 57 1015.8
20260507094502 59 267 0.0 2.0 0.00 0.00 0.00 59 1016.2
20260507093624 57 99 0.0 3.0 0.00 0.00 0.00 61 1015.8
20260507092703 58 111 0.0 5.0 0.00 0.00 0.00 61 1016.0
20260507091803 57 77 0.0 2.0 0.00 0.00 0.00 59 1015.9
20260507090902 58 145 1.0 10.0 0.00 0.00 0.00 64 1015.8
20260507090003 58 129 0.0 1.0 0.00 0.00 0.00 64 1016.0
20260507085424 57 119 0.0 3.0 0.00 0.00 0.00 64 1015.9
20260507084502 56 97 0.0 2.0 0.00 0.00 0.00 64 1016.0
20260507083603 56 0 0.0 0.0 0.00 0.00 0.00 65 1016.1
20260507082702 56 302 0.0 3.0 0.00 0.00 0.00 66 1016.0
20260507081803 55 357 0.0 3.0 0.00 0.00 0.00 67 1016.0
20260507080903 56 100 0.0 9.0 0.00 0.00 0.00 66 1015.9
20260507080003 55 0 0.0 0.0 0.00 0.00 0.00 68 1015.9
20260507075403 54 4 0.0 3.0 0.00 0.00 0.00 68 1015.9
20260507074502 56 0 0.0 0.0 0.00 0.00 0.00 69 1015.9
20260507073602 55 135 0.0 2.0 0.00 0.00 0.00 70 1015.8
20260507072723 55 0 0.0 0.0 0.00 0.00 0.00 72 1015.9
20260507071802 54 0 0.0 0.0 0.00 0.00 0.00 74 1016.0
20260507070902 53 0 0.0 0.0 0.00 0.00 0.00 75 1015.6
20260507070003 51 0 0.0 0.0 0.00 0.00 0.00 78 1015.9
20260507065424 51 0 0.0 0.0 0.00 0.00 0.00 78 1015.7
20260507064502 51 0 0.0 0.0 0.00 0.00 0.00 78 1015.6
20260507063602 51 0 0.0 0.0 0.00 0.00 0.00 79 1015.8
20260507062702 50 0 0.0 0.0 0.00 0.00 0.00 80 1015.7
20260507061803 49 0 0.0 0.0 0.00 0.00 0.00 82 1015.6
20260507060903 48 0 0.0 0.0 0.00 0.00 0.00 85 1015.6
20260507060003 47 0 0.0 0.0 0.00 0.00 0.00 91 1015.6
20260507055402 46 0 0.0 0.0 0.00 0.00 0.00 93 1015.5
20260507054503 44 0 0.0 0.0 0.00 0.00 0.00 94 1015.5
20260507053603 44 0 0.0 0.0 0.00 0.00 0.00 94 1015.4
20260507052703 43 0 0.0 0.0 0.00 0.00 0.00 95 1015.6
20260507051802 43 0 0.0 0.0 0.00 0.00 0.00 95 1015.5
20260507050924 42 0 0.0 0.0 0.00 0.00 0.00 94 1015.5
20260507050024 42 0 0.0 0.0 0.00 0.00 0.00 95 1015.5
20260507045403 42 0 0.0 0.0 0.00 0.00 0.00 94 1015.4
20260507044503 42 0 0.0 0.0 0.00 0.00 0.00 94 1015.3
20260507043624 42 0 0.0 0.0 0.00 0.00 0.00 94 1015.5
20260507042703 42 0 0.0 0.0 0.00 0.00 0.00 94 1015.5
20260507041803 42 0 0.0 0.0 0.00 0.00 0.00 94 1015.5
20260507040902 42 0 0.0 0.0 0.00 0.00 0.00 94 1015.3
20260507040024 42 0 0.0 0.0 0.00 0.00 0.00 93 1015.4
20260507035403 42 0 0.0 0.0 0.00 0.00 0.00 93 1015.1
20260507034503 42 0 0.0 0.0 0.00 0.00 0.00 93 1015.2
20260507033603 42 0 0.0 0.0 0.00 0.00 0.00 93 1015.2
20260507032703 42 0 0.0 0.0 0.00 0.00 0.00 93 1015.2
20260507031803 42 0 0.0 0.0 0.00 0.00 0.00 92 1015.2
20260507030903 42 0 0.0 0.0 0.00 0.00 0.00 92 1015.1
20260507030003 43 0 0.0 0.0 0.00 0.00 0.00 92 1015.2
20260507025403 42 0 0.0 0.0 0.00 0.00 0.00 92 1015.1
20260507024524 43 0 0.0 0.0 0.00 0.00 0.00 92 1014.9
20260507023603 43 0 0.0 0.0 0.00 0.00 0.00 91 1015.1
20260507022703 43 0 0.0 0.0 0.00 0.00 0.00 91 1015.2
20260507021803 43 0 0.0 0.0 0.00 0.00 0.00 91 1015.1
20260507020903 43 0 0.0 0.0 0.00 0.00 0.00 90 1014.9
20260507020003 43 0 0.0 0.0 0.00 0.00 0.00 90 1015.0
20260507015424 43 0 0.0 0.0 0.00 0.00 0.00 90 1015.0
20260507014503 43 0 0.0 0.0 0.00 0.00 0.00 89 1015.0
20260507013603 43 0 0.0 0.0 0.00 0.00 0.00 89 1015.1
20260507012724 43 0 0.0 0.0 0.00 0.00 0.00 88 1014.9
20260507011803 43 0 0.0 0.0 0.00 0.00 0.00 88 1014.9
20260507010903 43 0 0.0 0.0 0.00 0.00 0.00 88 1014.8